When you browse on this site, cookies collect data to enhance your experience and personalize the content and advertising you see.
Visit our Privacy Policy to learn more. By continuing to use the site, you agree to this use of cookies and data.
  • In Austria
  • List of Countries
  • For 7 days
  • Water Temperature
  • Weather Map
  • News
  • Weather Widgets
  • user-avatar
    Login

    Hourly Weather Ozerany

    Today, 25 February, Tuesday

    Time Temperature Precipitation Wind Pressure Humidity
    00:00 -1°C° 0 mm 3 mps 742 mmHg 78%
    01:00 -2°C° 0 mm 3 mps 742 mmHg 79%
    02:00 -3°C° 0 mm 4 mps 742 mmHg 81%
    03:00 -2°C° 0 mm 3 mps 742 mmHg 82%
    04:00 -2°C° 0 mm 2 mps 742 mmHg 84%
    05:00 -2°C° 0 mm 2 mps 742 mmHg 85%
    06:00 -2°C° 0 mm 2 mps 742 mmHg 84%
    07:00 -2°C° 0 mm 2 mps 742 mmHg 83%
    08:00 -1°C° 0 mm 2 mps 742 mmHg 81%
    09:00 0°C° 0 mm 3 mps 742 mmHg 74%
    10:00 +1°C° 0 mm 3 mps 742 mmHg 68%
    11:00 +2°C° 0 mm 3 mps 742 mmHg 61%
    12:00 +3°C° 0 mm 4 mps 741 mmHg 62%
    13:00 +3°C° 0 mm 4 mps 741 mmHg 62%
    14:00 +3°C° 0 mm 5 mps 740 mmHg 60%
    15:00 +2°C° 0 mm 5 mps 739 mmHg 66%
    16:00 +2°C° 0 mm 5 mps 739 mmHg 71%
    17:00 +1°C° 0 mm 4 mps 738 mmHg 76%
    18:00 +1°C° 0.1 mm 5 mps 738 mmHg 82%
    19:00 0°C° 0.1 mm 5 mps 737 mmHg 89%
    20:00 0°C° 0.1 mm 5 mps 737 mmHg 95%
    21:00 0°C° 0.2 mm 5 mps 736 mmHg 95%
    22:00 +1°C° 0.2 mm 5 mps 736 mmHg 95%
    23:00 +1°C° 0.2 mm 5 mps 735 mmHg 94%

    Tomorrow, 26 February, Wednesday

    Time Temperature Precipitation Wind Pressure Humidity
    00:00 +1°C° 0 mm 5 mps 735 mmHg 94%
    01:00 +1°C° 0 mm 5 mps 735 mmHg 94%
    02:00 +1°C° 0 mm 4 mps 734 mmHg 94%
    03:00 +1°C° 0 mm 4 mps 734 mmHg 94%
    04:00 +1°C° 0 mm 4 mps 733 mmHg 95%
    05:00 +1°C° 0 mm 4 mps 732 mmHg 95%
    06:00 +1°C° 0.5 mm 4 mps 732 mmHg 96%
    07:00 +1°C° 0.5 mm 4 mps 732 mmHg 96%
    08:00 +3°C° 0.5 mm 4 mps 732 mmHg 97%
    09:00 +3°C° 0.1 mm 3 mps 732 mmHg 95%
    10:00 +4°C° 0.1 mm 3 mps 732 mmHg 94%
    11:00 +4°C° 0.1 mm 3 mps 732 mmHg 92%
    12:00 +5°C° 0 mm 3 mps 732 mmHg 88%
    13:00 +5°C° 0 mm 3 mps 732 mmHg 83%
    14:00 +7°C° 0 mm 2 mps 732 mmHg 78%
    15:00 +7°C° 0 mm 2 mps 732 mmHg 79%
    16:00 +6°C° 0 mm 2 mps 732 mmHg 80%
    17:00 +6°C° 0 mm 2 mps 732 mmHg 81%
    18:00 +6°C° 0 mm 2 mps 732 mmHg 84%
    19:00 +5°C° 0 mm 2 mps 732 mmHg 87%
    20:00 +5°C° 0 mm 2 mps 732 mmHg 90%
    21:00 +5°C° 0.3 mm 2 mps 731 mmHg 92%
    22:00 +5°C° 0.3 mm 2 mps 731 mmHg 94%
    23:00 +5°C° 0.3 mm 2 mps 731 mmHg 96%

    Day after tomorrow, 27 February, Thursday

    Time Temperature Precipitation Wind Pressure Humidity
    00:00 +5°C° 1.2 mm 2 mps 730 mmHg 97%
    01:00 +5°C° 1.2 mm 2 mps 730 mmHg 97%
    02:00 +6°C° 1.2 mm 1 mps 730 mmHg 98%
    03:00 +5°C° 0.8 mm 2 mps 730 mmHg 97%
    04:00 +5°C° 0.8 mm 2 mps 730 mmHg 96%
    05:00 +3°C° 0.8 mm 3 mps 729 mmHg 96%
    06:00 +3°C° 0.1 mm 3 mps 730 mmHg 94%
    07:00 +3°C° 0.1 mm 3 mps 730 mmHg 92%
    08:00 +3°C° 0.1 mm 3 mps 731 mmHg 90%
    09:00 +3°C° 0 mm 3 mps 731 mmHg 86%
    10:00 +4°C° 0 mm 4 mps 731 mmHg 81%
    11:00 +4°C° 0 mm 4 mps 732 mmHg 77%
    12:00 +4°C° 0 mm 4 mps 732 mmHg 72%
    13:00 +4°C° 0 mm 4 mps 732 mmHg 67%
    14:00 +4°C° 0 mm 4 mps 733 mmHg 62%
    15:00 +4°C° 0 mm 4 mps 733 mmHg 63%
    16:00 +3°C° 0 mm 4 mps 733 mmHg 63%
    17:00 +3°C° 0 mm 4 mps 733 mmHg 64%
    18:00 +2°C° 0 mm 3 mps 734 mmHg 67%
    19:00 +2°C° 0 mm 3 mps 734 mmHg 70%
    20:00 +1°C° 0 mm 3 mps 734 mmHg 73%
    21:00 0°C° 0 mm 3 mps 734 mmHg 76%
    22:00 0°C° 0 mm 3 mps 734 mmHg 80%
    23:00 -1°C° 0 mm 3 mps 734 mmHg 84%

    28 February, Friday

    Time Temperature Precipitation Wind Pressure Humidity
    00:00 -1°C° 0 mm 3 mps 734 mmHg 83%
    01:00 -1°C° 0 mm 3 mps 735 mmHg 82%
    02:00 -3°C° 0 mm 4 mps 735 mmHg 81%
    03:00 -2°C° 0 mm 3 mps 735 mmHg 79%
    04:00 -2°C° 0 mm 3 mps 735 mmHg 78%
    05:00 -2°C° 0 mm 3 mps 735 mmHg 76%
    06:00 -2°C° 0 mm 3 mps 735 mmHg 75%
    07:00 -3°C° 0 mm 4 mps 735 mmHg 74%
    08:00 -3°C° 0 mm 4 mps 736 mmHg 73%
    09:00 -2°C° 0 mm 4 mps 736 mmHg 71%
    10:00 -1°C° 0 mm 5 mps 736 mmHg 68%
    11:00 0°C° 0 mm 5 mps 737 mmHg 65%
    12:00 0°C° 0 mm 5 mps 737 mmHg 62%
    13:00 +1°C° 0 mm 5 mps 737 mmHg 60%
    14:00 +1°C° 0 mm 5 mps 738 mmHg 57%
    15:00 +1°C° 0 mm 4 mps 738 mmHg 59%
    16:00 +1°C° 0 mm 3 mps 738 mmHg 61%
    17:00 +2°C° 0 mm 2 mps 739 mmHg 64%
    18:00 +1°C° 0 mm 2 mps 739 mmHg 67%
    19:00 +1°C° 0 mm 2 mps 740 mmHg 70%
    20:00 -1°C° 0 mm 2 mps 740 mmHg 73%
    21:00 -1°C° 0 mm 2 mps 740 mmHg 74%
    22:00 -1°C° 0 mm 2 mps 741 mmHg 75%
    23:00 -1°C° 0 mm 2 mps 741 mmHg 76%

    29 February, Saturday

    Time Temperature Precipitation Wind Pressure Humidity
    00:00 +1°C° 0 mm 1 mps 741 mmHg 77%
    01:00 +1°C° 0 mm 1 mps 741 mmHg 78%
    02:00 +1°C° 0 mm 1 mps 741 mmHg 79%
    03:00 +1°C° 0 mm 1 mps 741 mmHg 79%
    04:00 0°C° 0 mm 1 mps 742 mmHg 79%
    05:00 0°C° 0 mm 1 mps 742 mmHg 79%
    06:00 +1°C° 0 mm 1 mps 742 mmHg 78%
    07:00 +1°C° 0 mm 1 mps 742 mmHg 77%
    08:00 -1°C° 0 mm 2 mps 742 mmHg 77%
    09:00 +1°C° 0 mm 2 mps 743 mmHg 71%
    10:00 +1°C° 0 mm 2 mps 743 mmHg 66%
    11:00 +2°C° 0 mm 2 mps 743 mmHg 61%
    12:00 +1°C° 0 mm 3 mps 743 mmHg 63%
    13:00 +2°C° 0 mm 3 mps 743 mmHg 65%
    14:00 +1°C° 0 mm 4 mps 743 mmHg 67%
    15:00 +1°C° 0 mm 3 mps 743 mmHg 70%
    16:00 +1°C° 0 mm 3 mps 743 mmHg 73%
    17:00 0°C° 0 mm 3 mps 744 mmHg 76%
    18:00 0°C° 0 mm 3 mps 744 mmHg 79%
    19:00 -1°C° 0 mm 3 mps 744 mmHg 82%
    20:00 -1°C° 0 mm 2 mps 745 mmHg 85%
    21:00 -2°C° 0 mm 2 mps 745 mmHg 87%
    22:00 -2°C° 0 mm 2 mps 746 mmHg 89%
    23:00 -2°C° 0 mm 2 mps 746 mmHg 92%

    1 March, Sunday

    Time Temperature Precipitation Wind Pressure Humidity
    00:00 -3°C° 0 mm 2 mps 746 mmHg 91%
    01:00 -1°C° 0 mm 1 mps 746 mmHg 90%
    02:00 -1°C° 0 mm 1 mps 747 mmHg 88%
    03:00 -1°C° 0 mm 1 mps 747 mmHg 88%
    04:00 -1°C° 0 mm 1 mps 747 mmHg 88%
    05:00 -1°C° 0 mm 1 mps 747 mmHg 88%
    06:00 -3°C° 0 mm 2 mps 747 mmHg 88%
    07:00 -2°C° 0 mm 2 mps 747 mmHg 87%
    08:00 -2°C° 0 mm 3 mps 747 mmHg 86%
    09:00 -2°C° 0 mm 4 mps 747 mmHg 78%
    10:00 -1°C° 0 mm 5 mps 747 mmHg 70%
    11:00 +1°C° 0 mm 6 mps 747 mmHg 62%
    12:00 +1°C° 0 mm 6 mps 747 mmHg 60%
    13:00 +2°C° 0 mm 6 mps 746 mmHg 57%
    14:00 +3°C° 0 mm 6 mps 746 mmHg 55%
    15:00 +2°C° 0 mm 6 mps 745 mmHg 58%
    16:00 +2°C° 0 mm 6 mps 745 mmHg 62%
    17:00 +1°C° 0 mm 5 mps 745 mmHg 66%
    18:00 +1°C° 0 mm 5 mps 745 mmHg 68%
    19:00 0°C° 0 mm 5 mps 745 mmHg 70%
    20:00 -1°C° 0 mm 6 mps 745 mmHg 72%
    21:00 -1°C° 0 mm 6 mps 745 mmHg 73%
    22:00 -1°C° 0 mm 6 mps 744 mmHg 73%
    23:00 -1°C° 0 mm 6 mps 744 mmHg 73%
    Show more